EW9605 Weather Reports


Display with metric or nautical units.
time (UTC)temp
F
wind
direction
speed
MPH
gust
MPH
rain 1hr
in
rain 24hr
in
rain mn
in
humidity
%
barometer
mb
20260510201135 92 251 4.0 6.0 0.00 0.00 0.00 54 1013.2
20260510200653 92 239 1.0 4.0 0.00 0.00 0.00 56 1013.4
20260510200132 91 273 2.0 7.0 0.00 0.00 0.00 55 1013.5
20260510195631 92 279 3.0 8.0 0.00 0.00 0.00 54 1013.4
20260510195129 92 218 5.0 7.0 0.00 0.00 0.00 53 1013.7
20260510194648 92 228 2.0 7.0 0.00 0.00 0.00 54 1013.6
20260510194127 91 259 3.0 4.0 0.00 0.00 0.00 56 1013.6
20260510193625 91 244 5.0 8.0 0.00 0.00 0.00 56 1013.8
20260510193124 91 261 4.0 10.0 0.00 0.00 0.00 57 1013.8
20260510192643 91 269 6.0 10.0 0.00 0.00 0.00 57 1013.7
20260510192121 91 256 5.0 9.0 0.00 0.00 0.00 59 1013.7
20260510191620 91 249 5.0 9.0 0.00 0.00 0.00 60 1013.7
20260510191119 91 301 4.0 4.0 0.00 0.00 0.00 59 1013.7
20260510190618 91 287 2.0 8.0 0.00 0.00 0.00 58 1013.7
20260510190116 91 277 3.0 6.0 0.00 0.00 0.00 58 1013.9
20260510185635 91 277 5.0 8.0 0.00 0.00 0.00 58 1013.9
20260510185135 91 259 4.0 8.0 0.00 0.00 0.00 57 1014.0
20260510184633 92 235 4.0 6.0 0.00 0.00 0.00 58 1014.0
20260510184131 92 176 2.0 8.0 0.00 0.00 0.00 58 1014.2
20260510183630 92 257 3.0 7.0 0.00 0.00 0.00 57 1014.1
20260510183149 91 246 2.0 6.0 0.00 0.00 0.00 56 1014.1
20260510182628 92 272 4.0 7.0 0.00 0.00 0.00 56 1014.0
20260510182126 92 232 6.0 8.0 0.00 0.00 0.00 56 1014.2
20260510181625 92 227 1.0 7.0 0.00 0.00 0.00 57 1014.3
20260510181204 92 233 5.0 9.0 0.00 0.00 0.00 55 1014.4
20260510180644 92 240 1.0 6.0 0.00 0.00 0.00 56 1014.4
20260510180121 92 223 4.0 7.0 0.00 0.00 0.00 57 1014.5
20260510175640 93 231 2.0 4.0 0.00 0.00 0.00 55 1014.5
20260510175118 92 209 1.0 2.0 0.00 0.00 0.00 58 1014.7
20260510174617 92 228 4.0 7.0 0.00 0.00 0.00 56 1014.6
20260510174116 92 237 3.0 4.0 0.00 0.00 0.00 57 1014.6
20260510173635 92 243 8.0 11.0 0.00 0.00 0.00 56 1014.7
20260510173154 92 328 2.0 4.0 0.00 0.00 0.00 57 1014.6
20260510172632 91 271 3.0 7.0 0.00 0.00 0.00 56 1014.9
20260510172131 92 251 5.0 10.0 0.00 0.00 0.00 55 1015.0
20260510171629 92 250 5.0 9.0 0.00 0.00 0.00 55 1015.0
20260510171149 92 227 5.0 7.0 0.00 0.00 0.00 58 1015.0
20260510170627 91 267 2.0 3.0 0.00 0.00 0.00 58 1014.8
20260510170126 91 244 6.0 11.0 0.00 0.00 0.00 60 1014.9
20260510165624 91 228 0.0 2.0 0.00 0.00 0.00 60 1015.0
20260510165143 91 238 3.0 6.0 0.00 0.00 0.00 60 1014.9
20260510164702 91 217 1.0 4.0 0.00 0.00 0.00 59 1014.9
20260510164121 91 236 4.0 9.0 0.00 0.00 0.00 60 1015.0
20260510163619 91 270 0.0 2.0 0.00 0.00 0.00 63 1015.0
20260510163138 91 207 1.0 2.0 0.00 0.00 0.00 62 1015.0
20260510162637 90 231 4.0 9.0 0.00 0.00 0.00 62 1015.2
20260510162115 90 249 5.0 7.0 0.00 0.00 0.00 60 1015.1
20260510161634 90 233 5.0 8.0 0.00 0.00 0.00 63 1015.0
20260510161133 89 239 1.0 3.0 0.00 0.00 0.00 64 1015.1
20260510160652 88 234 1.0 3.0 0.00 0.00 0.00 65 1015.2
20260510160131 88 232 0.0 1.0 0.00 0.00 0.00 65 1015.2
20260510155629 89 0.0 0.0 0.00 0.00 0.00 67 1015.4
20260510155148 88 236 3.0 7.0 0.00 0.00 0.00 67 1015.3
20260510154627 88 231 1.0 6.0 0.00 0.00 0.00 65 1015.4
20260510154125 89 243 1.0 4.0 0.00 0.00 0.00 66 1015.4
20260510153624 89 0.0 0.0 0.00 0.00 0.00 67 1015.2
20260510153122 88 186 0.0 2.0 0.00 0.00 0.00 68 1015.4
20260510152621 88 0.0 0.0 0.00 0.00 0.00 69 1015.3
20260510152120 87 0.0 0.0 0.00 0.00 0.00 67 1015.3
20260510151618 88 169 0.0 2.0 0.00 0.00 0.00 69 1015.4
20260510151117 88 0.0 0.0 0.00 0.00 0.00 71 1015.2
20260510150616 87 0.0 0.0 0.00 0.00 0.00 70 1015.3
20260510150135 87 0.0 0.0 0.00 0.00 0.00 69 1015.1
20260510145653 87 0.0 0.0 0.00 0.00 0.00 73 1015.0
20260510145132 87 135 0.0 3.0 0.00 0.00 0.00 72 1015.0
20260510144630 86 0.0 0.0 0.00 0.00 0.00 74 1015.2
20260510144129 86 0.0 0.0 0.00 0.00 0.00 75 1015.2
20260510143628 86 0.0 0.0 0.00 0.00 0.00 76 1015.0
20260510143126 85 161 0.0 2.0 0.00 0.00 0.00 76 1014.9
20260510142625 85 0.0 0.0 0.00 0.00 0.00 78 1015.0
20260510142124 85 0.0 0.0 0.00 0.00 0.00 80 1014.9
20260510141623 84 0.0 0.0 0.00 0.00 0.00 81 1015.1
20260510141121 84 0.0 0.0 0.00 0.00 0.00 82 1015.0
20260510140640 83 0.0 0.0 0.00 0.00 0.00 83 1015.0
20260510140139 83 0.0 0.0 0.00 0.00 0.00 83 1015.0
20260510135637 83 0.0 0.0 0.00 0.00 0.00 85 1014.7
20260510135116 82 0.0 0.0 0.00 0.00 0.00 85 1014.7
20260510134635 82 0.0 0.0 0.00 0.00 0.00 85 1014.8
20260510134133 82 0.0 0.0 0.00 0.00 0.00 84 1014.9
20260510133632 82 0.0 0.0 0.00 0.00 0.00 86 1014.8
20260510133131 81 0.0 0.0 0.00 0.00 0.00 88 1014.9
20260510132629 80 0.0 0.0 0.00 0.00 0.00 89 1014.9
20260510132128 80 0.0 0.0 0.00 0.00 0.00 89 1014.9
20260510131627 79 0.0 0.0 0.00 0.00 0.00 89 1014.7
20260510131126 79 0.0 0.0 0.00 0.00 0.00 90 1014.9
20260510130624 79 0.0 0.0 0.00 0.00 0.00 91 1014.9
20260510130143 78 0.0 0.0 0.00 0.00 0.00 91 1014.9
20260510125642 78 297 0.0 1.0 0.00 0.00 0.00 92 1014.8
20260510125120 77 0.0 0.0 0.00 0.00 0.00 91 1014.8
20260510124619 77 0.0 0.0 0.00 0.00 0.00 92 1014.8
20260510124118 77 0.0 0.0 0.00 0.00 0.00 92 1014.7
20260510123616 77 0.0 0.0 0.00 0.00 0.00 92 1014.7
20260510123135 77 77 0.0 1.0 0.00 0.00 0.00 92 1014.7
20260510122634 76 0.0 0.0 0.00 0.00 0.00 92 1014.7
20260510122133 76 0.0 0.0 0.00 0.00 0.00 92 1014.5
20260510121631 76 0.0 0.0 0.00 0.00 0.00 92 1014.5
20260510121130 76 0.0 0.0 0.00 0.00 0.00 93 1014.7
20260510120629 76 0.0 0.0 0.00 0.00 0.00 92 1014.3
20260510120127 76 0.0 0.0 0.00 0.00 0.00 92 1014.2
20260510115646 76 0.0 0.0 0.00 0.00 0.00 92 1014.1
20260510115124 76 0.0 0.0 0.00 0.00 0.00 92 1013.9
20260510114622 75 0.0 0.0 0.00 0.00 0.00 92 1013.7
20260510114121 75 0.0 0.0 0.00 0.00 0.00 92 1013.8
20260510113620 75 0.0 0.0 0.00 0.00 0.00 92 1013.8
20260510113118 75 0.0 0.0 0.00 0.00 0.00 92 1013.7
20260510112637 74 0.0 0.0 0.00 0.00 0.00 91 1013.6
20260510112116 74 0.0 0.0 0.00 0.00 0.00 91 1013.4
20260510111634 74 0.0 0.0 0.00 0.00 0.00 91 1013.3
20260510111133 74 0.0 0.0 0.00 0.00 0.00 91 1013.2
20260510110652 74 0.0 0.0 0.00 0.00 0.00 91 1013.0
20260510110130 74 0.0 0.0 0.00 0.00 0.00 91 1012.8
20260510105629 74 0.0 0.0 0.00 0.00 0.00 92 1012.9
20260510105228 74 0.0 0.0 0.00 0.00 0.00 91 1012.3
20260510104626 74 0.0 0.0 0.00 0.00 0.00 92 1012.1
20260510104125 74 0.0 0.0 0.00 0.00 0.00 91 1012.1
20260510103623 74 0.0 0.0 0.00 0.00 0.00 91 1012.0
20260510103122 74 0.0 0.0 0.00 0.00 0.00 91 1012.1
20260510102620 74 0.0 0.0 0.00 0.00 0.00 90 1012.0
20260510102119 74 0.0 0.0 0.00 0.00 0.00 90 1012.2
20260510101618 74 0.0 0.0 0.00 0.00 0.00 90 1012.0
20260510101137 74 0.0 0.0 0.00 0.00 0.00 90 1011.9
20260510100635 74 160 1.0 2.0 0.00 0.00 0.00 90 1011.7
20260510100134 74 152 2.0 4.0 0.00 0.00 0.00 90 1011.8
20260510095632 74 0.0 0.0 0.00 0.00 0.00 89 1011.9
20260510095131 74 155 0.0 4.0 0.00 0.00 0.00 89 1011.8
20260510094629 74 164 2.0 7.0 0.00 0.00 0.00 89 1011.9
20260510094128 74 0.0 0.0 0.00 0.00 0.00 89 1011.9
20260510093627 74 0.0 0.0 0.00 0.00 0.00 88 1012.1
20260510093126 75 0.0 0.0 0.00 0.00 0.00 88 1012.1
20260510092625 75 0.0 0.0 0.00 0.00 0.00 87 1012.1
20260510092123 75 0.0 0.0 0.00 0.00 0.00 87 1012.1
20260510091622 75 0.0 0.0 0.00 0.00 0.00 87 1012.1
20260510091121 75 0.0 0.0 0.00 0.00 0.00 87 1012.1
20260510090620 75 0.0 0.0 0.00 0.00 0.00 88 1012.1
20260510090118 75 0.0 0.0 0.00 0.00 0.00 88 1012.2
20260510085617 75 0.0 0.0 0.00 0.00 0.00 88 1012.1
20260510085116 76 0.0 0.0 0.00 0.00 0.00 88 1012.0
20260510084634 76 0.0 0.0 0.00 0.00 0.00 88 1012.0
20260510084133 76 0.0 0.0 0.00 0.00 0.00 88 1012.0
20260510083632 76 0.0 0.0 0.00 0.00 0.00 89 1012.1
20260510083130 76 0.0 0.0 0.00 0.00 0.00 88 1011.8
20260510082629 76 175 0.0 1.0 0.00 0.00 0.00 87 1011.9
20260510082128 76 0.0 0.0 0.00 0.00 0.00 86 1012.0
20260510081626 76 0.0 0.0 0.00 0.00 0.00 86 1012.0
20260510081125 76 0.0 0.0 0.00 0.00 0.00 86 1012.2
20260510080631 76 0.0 0.0 0.00 0.00 0.00 85 1012.0
20260510080130 76 0.0 0.0 0.00 0.00 0.00 85 1012.0
20260510075649 76 0.0 0.0 0.00 0.00 0.00 85 1012.0
20260510075127 76 0.0 0.0 0.00 0.00 0.00 85 1012.0
20260510074625 76 0.0 0.0 0.00 0.00 0.00 85 1012.1
20260510074145 76 0.0 0.0 0.00 0.00 0.00 85 1012.2
20260510073623 76 0.0 0.0 0.00 0.00 0.00 85 1012.1
20260510073121 76 0.0 0.0 0.00 0.00 0.00 85 1012.3
20260510072721 76 0.0 0.0 0.00 0.00 0.00 85 1012.4
20260510072119 76 0.0 0.0 0.00 0.00 0.00 84 1012.4
20260510071618 76 0.0 0.0 0.00 0.00 0.00 84 1012.4
20260510071116 77 0.0 0.0 0.00 0.00 0.00 84 1012.3
20260510070635 77 0.0 0.0 0.00 0.00 0.00 84 1012.4
20260510070153 77 0.0 0.0 0.00 0.00 0.00 84 1012.4
20260510065632 77 0.0 0.0 0.00 0.00 0.00 84 1012.4
20260510065151 77 0.0 0.0 0.00 0.00 0.00 84 1012.4
20260510064629 77 0.0 0.0 0.00 0.00 0.00 84 1012.6
20260510064128 77 0.0 0.0 0.00 0.00 0.00 84 1012.5
20260510063627 77 0.0 0.0 0.00 0.00 0.00 84 1012.5
20260510063125 77 0.0 0.0 0.00 0.00 0.00 84 1012.5
20260510062624 77 0.0 0.0 0.00 0.00 0.00 84 1012.5
20260510062143 78 0.0 0.0 0.00 0.00 0.00 84 1012.5
20260510061621 77 0.0 0.0 0.00 0.00 0.00 84 1012.6
20260510061120 77 0.0 0.0 0.00 0.00 0.00 85 1012.5
20260510060619 77 0.0 0.0 0.00 0.00 0.00 85 1012.7
20260510060118 78 0.0 0.0 0.00 0.00 0.00 85 1012.8
20260510055616 78 0.0 0.0 0.00 0.00 0.00 84 1012.9
20260510055135 78 0.0 0.0 0.00 0.00 0.00 84 1012.9
20260510054653 78 0.0 0.0 0.00 0.00 0.00 84 1013.0
20260510054152 78 0.0 0.0 0.00 0.00 0.00 84 1013.0
20260510053632 78 0.0 0.0 0.00 0.00 0.00 84 1013.1
20260510053129 78 0.0 0.0 0.00 0.00 0.00 85 1013.1
20260510052628 78 0.0 0.0 0.00 0.00 0.00 85 1013.1
20260510052147 78 0.0 0.0 0.00 0.00 0.00 86 1013.3
20260510051625 78 0.0 0.0 0.00 0.00 0.00 86 1013.1
20260510051123 78 0.0 0.0 0.00 0.00 0.00 87 1013.4
20260510050622 78 0.0 0.0 0.00 0.00 0.00 87 1013.6
20260510050141 78 0.0 0.0 0.00 0.00 0.00 87 1013.5
20260510045619 78 0.0 0.0 0.00 0.00 0.00 86 1013.4
20260510045118 78 32 0.0 1.0 0.00 0.00 0.00 86 1013.6
20260510044616 79 0.0 0.0 0.00 0.00 0.00 87 1013.5
20260510044135 79 0.0 0.0 0.00 0.00 0.00 87 1013.5
20260510043634 79 0.0 0.0 0.00 0.00 0.00 87 1013.5
20260510043132 79 257 0.0 1.0 0.00 0.00 0.00 88 1013.6
20260510042651 79 0.0 0.0 0.00 0.00 0.00 87 1013.5
20260510042150 79 0.0 0.0 0.00 0.00 0.00 87 1013.5
20260510041628 79 0.0 0.0 0.00 0.00 0.00 87 1013.5
20260510041127 79 0.0 0.0 0.00 0.00 0.00 86 1013.5
20260510040626 79 0.0 0.0 0.00 0.00 0.00 84 1013.6
20260510040124 79 0.0 0.0 0.00 0.00 0.00 84 1013.5
20260510035703 79 0.0 0.0 0.00 0.00 0.00 83 1013.5
20260510035121 79 0.0 0.0 0.00 0.00 0.00 83 1013.5
20260510034620 79 0.0 0.0 0.00 0.00 0.00 82 1013.4
20260510034119 79 0.0 0.0 0.00 0.00 0.00 81 1013.3
20260510033617 80 0.0 0.0 0.00 0.00 0.00 81 1013.4
20260510033136 80 0.0 0.0 0.00 0.00 0.00 81 1013.3
20260510032635 80 0.0 0.0 0.00 0.00 0.00 81 1013.3
20260510032133 80 257 0.0 1.0 0.00 0.00 0.00 81 1013.4
20260510031652 80 0.0 0.0 0.00 0.00 0.00 80 1013.3
20260510031130 80 0.0 0.0 0.00 0.00 0.00 80 1013.2
20260510030649 80 0.0 0.0 0.00 0.00 0.00 80 1013.2
20260510030128 80 0.0 0.0 0.00 0.00 0.00 79 1013.2
20260510025626 80 0.0 0.0 0.00 0.00 0.00 79 1013.3
20260510025124 80 0.0 0.0 0.00 0.00 0.00 79 1013.1
20260510024623 80 0.0 0.0 0.00 0.00 0.00 79 1013.0
20260510024122 80 0.0 0.0 0.00 0.00 0.00 79 1013.0
20260510023620 80 0.0 0.0 0.00 0.00 0.00 79 1013.1
20260510023139 80 0.0 0.0 0.00 0.00 0.00 78 1013.0
20260510022617 80 0.0 0.0 0.00 0.00 0.00 78 1012.8
20260510022116 80 0.0 0.0 0.00 0.00 0.00 77 1012.9
20260510021715 80 0.0 0.0 0.00 0.00 0.00 77 1012.6
20260510021133 80 0.0 0.0 0.00 0.00 0.00 77 1012.8
20260510020634 81 0.0 0.0 0.00 0.00 0.00 77 1012.6
20260510020130 81 0.0 0.0 0.00 0.00 0.00 76 1012.5
20260510015649 81 0.0 0.0 0.00 0.00 0.00 76 1012.5
20260510015148 81 0.0 0.0 0.00 0.00 0.00 75 1012.5
20260510014626 81 0.0 0.0 0.00 0.00 0.00 75 1012.3
20260510014125 81 0.0 0.0 0.00 0.00 0.00 74 1012.3
20260510013623 81 254 0.0 1.0 0.00 0.00 0.00 73 1012.4
20260510013122 81 0.0 0.0 0.00 0.00 0.00 73 1012.3
20260510012621 82 258 1.0 2.0 0.00 0.00 0.00 73 1012.2
20260510012119 82 0.0 0.0 0.00 0.00 0.00 72 1012.2
20260510011618 82 0.0 0.0 0.00 0.00 0.00 72 1012.1
20260510011116 82 0.0 0.0 0.00 0.00 0.00 72 1012.0
20260510010635 82 252 0.0 2.0 0.00 0.00 0.00 71 1012.0
20260510010133 82 257 1.0 2.0 0.00 0.00 0.00 71 1011.9
20260510005635 82 0.0 0.0 0.00 0.00 0.00 71 1011.9
20260510005130 82 0.0 0.0 0.00 0.00 0.00 70 1011.6
20260510004628 82 235 0.0 1.0 0.00 0.00 0.00 70 1011.4
20260510004127 83 0.0 0.0 0.00 0.00 0.00 69 1011.4
20260510003626 83 244 1.0 2.0 0.00 0.00 0.00 69 1011.4
20260510003124 83 234 1.0 4.0 0.00 0.00 0.00 68 1011.4
20260510002623 83 241 3.0 6.0 0.00 0.00 0.00 68 1011.3
20260510002142 83 246 2.0 4.0 0.00 0.00 0.00 67 1011.4
20260510001620 83 254 4.0 7.0 0.00 0.00 0.00 67 1011.2
20260510001119 84 230 3.0 6.0 0.00 0.00 0.00 66 1011.2
20260510000617 84 234 0.0 3.0 0.00 0.00 0.00 65 1011.4
20260510000116 84 245 3.0 6.0 0.00 0.00 0.00 64 1011.3
20260509235655 84 239 5.0 8.0 0.00 0.00 0.00 64 1011.3
20260509235133 84 264 4.0 7.0 0.00 0.00 0.00 63 1011.2
20260509234633 85 235 5.0 9.0 0.00 0.00 0.00 61 1011.1
20260509234133 85 277 2.0 2.0 0.00 0.00 0.00 60 1011.0
20260509233650 85 249 4.0 6.0 0.00 0.00 0.00 59 1011.1
20260509233128 85 246 3.0 7.0 0.00 0.00 0.00 58 1010.8
20260509232627 86 265 4.0 7.0 0.00 0.00 0.00 57 1010.9
20260509232125 87 232 4.0 7.0 0.00 0.00 0.00 55 1010.9
20260509231624 88 253 3.0 6.0 0.00 0.00 0.00 53 1010.8
20260509231122 89 244 3.0 4.0 0.00 0.00 0.00 53 1010.9
20260509230621 88 236 5.0 8.0 0.00 0.00 0.00 53 1010.7
20260509230140 89 234 4.0 7.0 0.00 0.00 0.00 50 1010.8
20260509225618 90 241 5.0 9.0 0.00 0.00 0.00 51 1010.7
20260509225116 90 243 6.0 10.0 0.00 0.00 0.00 51 1010.7
20260509224635 91 240 7.0 11.0 0.00 0.00 0.00 49 1010.7
20260509224134 91 238 1.0 3.0 0.00 0.00 0.00 50 1010.5
20260509223632 91 228 5.0 7.0 0.00 0.00 0.00 50 1010.4
20260509223151 92 271 6.0 9.0 0.00 0.00 0.00 48 1010.4
20260509222629 92 244 6.0 8.0 0.00 0.00 0.00 49 1010.4
20260509222131 92 237 5.0 8.0 0.00 0.00 0.00 48 1010.5
20260509221627 92 235 5.0 9.0 0.00 0.00 0.00 50 1010.5
20260509221126 92 259 5.0 8.0 0.00 0.00 0.00 49 1010.5
20260509220624 93 255 5.0 9.0 0.00 0.00 0.00 47 1010.3
20260509220122 94 179 1.0 3.0 0.00 0.00 0.00 45 1010.3
20260509215621 93 239 6.0 9.0 0.00 0.00 0.00 47 1010.3
20260509215120 93 206 4.0 7.0 0.00 0.00 0.00 46 1010.2
20260509214618 93 234 5.0 11.0 0.00 0.00 0.00 46 1010.1
20260509214118 94 236 7.0 15.0 0.00 0.00 0.00 44 1010.2
20260509213616 93 204 3.0 6.0 0.00 0.00 0.00 47 1010.2
20260509213135 92 221 3.0 7.0 0.00 0.00 0.00 48 1010.2
20260509212634 92 227 7.0 14.0 0.00 0.00 0.00 47 1010.1
20260509212133 92 242 7.0 11.0 0.00 0.00 0.00 45 1010.1
20260509211631 92 242 3.0 6.0 0.00 0.00 0.00 47 1010.0
20260509211130 92 258 6.0 8.0 0.00 0.00 0.00 48 1010.1
20260509210629 92 228 5.0 11.0 0.00 0.00 0.00 46 1009.9
20260509210128 92 233 7.0 10.0 0.00 0.00 0.00 47 1010.2
20260509205626 92 296 8.0 10.0 0.00 0.00 0.00 47 1010.1
20260509205125 92 183 5.0 11.0 0.00 0.00 0.00 48 1010.2
20260509204624 92 252 5.0 13.0 0.00 0.00 0.00 47 1010.0
20260509204123 92 265 8.0 13.0 0.00 0.00 0.00 47 1010.3
20260509203621 92 222 3.0 8.0 0.00 0.00 0.00 48 1010.2
20260509203120 91 221 9.0 17.0 0.00 0.00 0.00 47 1010.3
20260509202619 91 224 5.0 17.0 0.00 0.00 0.00 50 1010.2
20260509202118 91 260 7.0 9.0 0.00 0.00 0.00 49 1010.4
20260509201616 91 257 10.0 16.0 0.00 0.00 0.00 51 1010.4